25-05-2022, 00:00:06,    225,    0.9,    8.0,   0.00,   0.00, 1009.0,   82.1, -999.0
25-05-2022, 00:00:16,    240,    1.7,    7.9,   0.00,   0.00, 1009.0,   82.2, -999.0
25-05-2022, 00:00:26,    240,    0.5,    7.9,   0.00,   0.00, 1009.0,   82.2, -999.0
25-05-2022, 00:00:36,    254,    0.3,    7.9,   0.00,   0.00, 1008.9,   82.0, -999.0
25-05-2022, 00:00:46,    257,    0.1,    7.9,   0.00,   0.00, 1008.9,   82.0, -999.0
25-05-2022, 00:00:56,    191,    1.2,    7.9,   0.00,   0.00, 1009.0,   82.1, -999.0
25-05-2022, 00:01:06,    216,    0.7,    7.9,   0.00,   0.00, 1009.0,   82.2, -999.0
25-05-2022, 00:01:16,    241,    0.5,    7.9,   0.00,   0.00, 1009.0,   82.3, -999.0
25-05-2022, 00:01:26,    256,    1.6,    8.0,   0.00,   0.00, 1009.0,   82.3, -999.0
25-05-2022, 00:01:36,    247,    1.4,    7.9,   0.00,   0.00, 1009.0,   82.3, -999.0
25-05-2022, 00:01:45,    236,    0.4,    8.0,   0.00,   0.00, 1009.0,   82.2, -999.0
25-05-2022, 00:01:56,    237,    0.0,    7.9,   0.00,   0.00, 1008.9,   82.0, -999.0
25-05-2022, 00:02:06,    236,    0.4,    7.9,   0.00,   0.00, 1009.0,   82.3, -999.0
25-05-2022, 00:02:15,    234,    1.0,    7.9,   0.00,   0.00, 1009.0,   82.3, -999.0
25-05-2022, 00:02:25,    235,    0.6,    7.9,   0.00,   0.00, 1009.0,   82.4, -999.0
25-05-2022, 00:02:36,    234,    0.0,    7.9,   0.00,   0.00, 1008.9,   82.0, -999.0
25-05-2022, 00:02:45,    235,    0.0,    7.7,   0.00,   0.00, 1008.9,   82.0, -999.0
25-05-2022, 00:02:55,    250,    0.9,    7.9,   0.00,   0.00, 1009.0,   82.4, -999.0
25-05-2022, 00:03:05,    240,    2.6,    8.0,   0.00,   0.00, 1009.0,   82.4, -999.0
25-05-2022, 00:03:15,    234,    0.9,    8.0,   0.00,   0.00, 1009.0,   82.5, -999.0
25-05-2022, 00:03:25,    235,    0.3,    7.9,   0.00,   0.00, 1009.0,   82.5, -999.0
25-05-2022, 00:03:35,    234,    0.0,    7.8,   0.00,   0.00, 1008.8,   82.3, -999.0
25-05-2022, 00:03:45,    234,    0.0,    7.8,   0.00,   0.00, 1008.8,   82.1, -999.0
25-05-2022, 00:03:55,    251,    0.5,    7.8,   0.00,   0.00, 1008.9,   82.5, -999.0
25-05-2022, 00:04:05,    240,    3.1,    8.0,   0.00,   0.00, 1009.0,   82.6, -999.0
25-05-2022, 00:04:15,    256,    1.2,    7.9,   0.00,   0.00, 1009.0,   82.6, -999.0
25-05-2022, 00:04:25,    230,    0.9,    7.9,   0.00,   0.00, 1009.0,   82.6, -999.0
25-05-2022, 00:04:35,    236,    0.3,    7.9,   0.00,   0.00, 1008.9,   82.5, -999.0
25-05-2022, 00:04:45,    243,    0.2,    7.9,   0.00,   0.00, 1008.9,   82.5, -999.0
25-05-2022, 00:04:55,    254,    0.3,    7.9,   0.00,   0.00, 1008.9,   82.5, -999.0
25-05-2022, 00:05:05,    257,    0.8,    7.9,   0.00,   0.00, 1009.0,   82.7, -999.0
25-05-2022, 00:05:15,    249,    0.5,    8.0,   0.00,   0.00, 1009.0,   82.6, -999.0
25-05-2022, 00:05:24,    277,    0.5,    7.9,   0.00,   0.00, 1009.0,   82.7, -999.0
25-05-2022, 00:05:34,    254,    1.3,    8.0,   0.00,   0.00, 1009.0,   82.7, -999.0
25-05-2022, 00:05:45,    253,    1.0,    8.0,   0.00,   0.00, 1009.0,   82.7, -999.0
25-05-2022, 00:05:54,    236,    1.7,    7.9,   0.00,   0.00, 1009.0,   82.7, -999.0
25-05-2022, 00:06:04,    238,    2.7,    8.0,   0.00,   0.00, 1009.0,   82.7, -999.0
25-05-2022, 00:06:14,    245,    1.4,    8.0,   0.00,   0.00, 1009.0,   82.7, -999.0
25-05-2022, 00:06:24,    252,    0.1,    7.9,   0.00,   0.00, 1008.9,   82.6, -999.0
25-05-2022, 00:06:34,    277,    0.8,    7.9,   0.00,   0.00, 1009.0,   82.8, -999.0
25-05-2022, 00:06:44,    283,    0.8,    7.9,   0.00,   0.00, 1009.0,   82.7, -999.0
25-05-2022, 00:06:54,    213,    0.4,    7.9,   0.00,   0.00, 1009.0,   82.7, -999.0
25-05-2022, 00:07:04,    222,    1.4,    7.9,   0.00,   0.00, 1009.0,   82.8, -999.0
25-05-2022, 00:07:14,    231,    0.8,    8.0,   0.00,   0.00, 1009.0,   82.8, -999.0
25-05-2022, 00:07:24,    265,    1.7,    7.9,   0.00,   0.00, 1009.0,   82.8, -999.0
25-05-2022, 00:07:34,    254,    0.6,    7.9,   0.00,   0.00, 1009.0,   82.8, -999.0
25-05-2022, 00:07:44,    249,    3.0,    7.9,   0.00,   0.00, 1009.0,   82.9, -999.0
25-05-2022, 00:07:54,    242,    2.3,    7.9,   0.00,   0.00, 1009.0,   82.9, -999.0
25-05-2022, 00:08:04,    288,    1.7,    7.9,   0.00,   0.00, 1009.0,   82.9, -999.0
25-05-2022, 00:08:14,    252,    0.4,    8.0,   0.00,   0.00, 1009.0,   82.8, -999.0
25-05-2022, 00:08:24,    253,    0.5,    7.9,   0.00,   0.00, 1009.0,   83.0, -999.0
25-05-2022, 00:08:34,    258,    0.5,    7.9,   0.00,   0.00, 1009.0,   82.9, -999.0
25-05-2022, 00:08:43,    257,    0.3,    7.9,   0.00,   0.00, 1009.0,   82.9, -999.0
25-05-2022, 00:08:54,    256,    0.5,    7.9,   0.00,   0.00, 1009.0,   82.9, -999.0
25-05-2022, 00:09:03,    256,    0.3,    7.9,   0.00,   0.00, 1009.0,   82.9, -999.0
25-05-2022, 00:09:13,    256,    0.1,    7.9,   0.00,   0.00, 1008.9,   82.8, -999.0
25-05-2022, 00:09:23,    236,    0.8,    7.9,   0.00,   0.00, 1009.0,   82.9, -999.0
25-05-2022, 00:09:33,    241,    1.1,    8.0,   0.00,   0.00, 1009.0,   82.9, -999.0
25-05-2022, 00:09:43,    240,    0.3,    7.9,   0.00,   0.00, 1009.0,   83.0, -999.0
25-05-2022, 00:09:53,    241,    0.0,    7.9,   0.00,   0.00, 1008.9,   82.6, -999.0
25-05-2022, 00:10:03,    211,    0.0,    7.9,   0.00,   0.00, 1008.9,   82.5, -999.0
25-05-2022, 00:10:13,    251,    2.1,    7.9,   0.00,   0.00, 1009.0,   82.9, -999.0
25-05-2022, 00:10:23,    229,    1.4,    7.9,   0.00,   0.00, 1009.0,   83.0, -999.0
25-05-2022, 00:10:33,    196,    1.0,    8.0,   0.00,   0.00, 1009.0,   83.0, -999.0
25-05-2022, 00:10:43,    217,    1.7,    7.9,   0.00,   0.00, 1009.0,   83.2, -999.0
25-05-2022, 00:10:53,    216,    0.1,    7.9,   0.00,   0.00, 1008.9,   82.8, -999.0
25-05-2022, 00:11:03,    293,    0.9,    7.8,   0.00,   0.00, 1008.9,   82.9, -999.0
25-05-2022, 00:11:13,    253,    1.2,    7.9,   0.00,   0.00, 1009.0,   83.2, -999.0
25-05-2022, 00:11:23,    278,    1.0,    7.9,   0.00,   0.00, 1009.0,   83.1, -999.0
25-05-2022, 00:11:33,    278,    0.2,    7.8,   0.00,   0.00, 1008.9,   82.8, -999.0
25-05-2022, 00:11:43,    278,    0.0,    7.8,   0.00,   0.00, 1008.9,   82.7, -999.0
25-05-2022, 00:11:52,    278,    0.0,    7.8,   0.00,   0.00, 1008.8,   82.7, -999.0
25-05-2022, 00:12:03,    276,    0.0,    7.8,   0.00,   0.00, 1008.9,   82.7, -999.0
25-05-2022, 00:12:13,    253,    0.1,    7.8,   0.00,   0.00, 1008.9,   82.8, -999.0
25-05-2022, 00:12:22,    252,    0.1,    7.8,   0.00,   0.00, 1008.9,   82.9, -999.0
25-05-2022, 00:12:32,    252,    0.2,    7.8,   0.00,   0.00, 1009.0,   83.0, -999.0
25-05-2022, 00:12:43,    235,    0.9,    7.9,   0.00,   0.00, 1009.0,   83.0, -999.0
25-05-2022, 00:12:52,    180,    0.3,    7.8,   0.00,   0.00, 1008.9,   82.9, -999.0
25-05-2022, 00:13:02,    261,    0.0,    7.8,   0.00,   0.00, 1008.9,   82.7, -999.0
25-05-2022, 00:13:12,    261,    0.0,    7.8,   0.00,   0.00, 1008.9,   82.9, -999.0
25-05-2022, 00:13:22,    260,    0.2,    7.8,   0.00,   0.00, 1008.9,   83.0, -999.0
25-05-2022, 00:13:32,    260,    0.6,    7.8,   0.00,   0.00, 1009.0,   83.1, -999.0
25-05-2022, 00:13:42,    227,    2.7,    7.9,   0.00,   0.00, 1009.0,   83.1, -999.0
25-05-2022, 00:13:52,    249,    3.3,    7.9,   0.00,   0.00, 1009.0,   83.2, -999.0
25-05-2022, 00:14:02,    250,    3.3,    7.9,   0.00,   0.00, 1009.0,   83.1, -999.0
25-05-2022, 00:14:12,    249,    1.1,    7.9,   0.00,   0.00, 1009.0,   83.2, -999.0
25-05-2022, 00:14:22,    216,    1.6,    7.8,   0.00,   0.00, 1009.0,   83.2, -999.0
25-05-2022, 00:14:32,    229,    0.8,    7.8,   0.00,   0.00, 1009.0,   83.3, -999.0
25-05-2022, 00:14:42,    234,    2.2,    7.9,   0.00,   0.00, 1009.0,   83.3, -999.0
25-05-2022, 00:14:52,    245,    0.7,    7.9,   0.00,   0.00, 1009.0,   83.3, -999.0
25-05-2022, 00:15:01,    247,    0.9,    7.9,   0.00,   0.00, 1009.0,   83.3, -999.0
25-05-2022, 00:15:12,    256,    1.1,    7.8,   0.00,   0.00, 1009.0,   83.3, -999.0
25-05-2022, 00:15:22,    255,    0.2,    7.8,   0.00,   0.00, 1009.0,   83.3, -999.0
25-05-2022, 00:15:31,    255,    0.2,    7.8,   0.00,   0.00, 1009.0,   83.1, -999.0
25-05-2022, 00:15:41,    255,    0.1,    7.7,   0.00,   0.00, 1008.9,   83.1, -999.0
25-05-2022, 00:15:52,    255,    0.3,    7.8,   0.00,   0.00, 1009.0,   83.1, -999.0
25-05-2022, 00:16:01,    256,    0.3,    7.8,   0.00,   0.00, 1008.9,   83.2, -999.0
25-05-2022, 00:16:11,    248,    0.5,    7.8,   0.00,   0.00, 1009.0,   83.4, -999.0
25-05-2022, 00:16:21,    247,    0.8,    7.8,   0.00,   0.00, 1009.0,   83.4, -999.0
25-05-2022, 00:16:31,    232,    1.1,    7.8,   0.00,   0.00, 1009.0,   83.3, -999.0
25-05-2022, 00:16:41,    236,    0.7,    7.8,   0.00,   0.00, 1009.0,   83.4, -999.0
25-05-2022, 00:16:51,    236,    0.0,    7.8,   0.00,   0.00, 1008.9,   83.0, -999.0
25-05-2022, 00:17:01,    235,    0.0,    7.7,   0.00,   0.00, 1008.9,   83.1, -999.0
25-05-2022, 00:17:11,    236,    0.0,    7.8,   0.00,   0.00, 1008.9,   83.2, -999.0
25-05-2022, 00:17:21,    236,    0.0,    7.7,   0.00,   0.00, 1008.9,   83.1, -999.0
25-05-2022, 00:17:31,    235,    0.0,    7.8,   0.00,   0.00, 1008.9,   83.1, -999.0
25-05-2022, 00:17:41,    235,    0.0,    7.7,   0.00,   0.00, 1008.9,   83.1, -999.0
25-05-2022, 00:17:51,    254,    1.4,    7.8,   0.00,   0.00, 1009.0,   83.5, -999.0
25-05-2022, 00:18:01,    245,    0.7,    7.9,   0.00,   0.00, 1009.0,   83.6, -999.0
25-05-2022, 00:18:11,    244,    0.0,    7.7,   0.00,   0.00, 1008.9,   83.1, -999.0
25-05-2022, 00:18:21,    244,    0.0,    7.7,   0.00,   0.00, 1008.9,   83.1, -999.0
25-05-2022, 00:18:31,    206,    0.5,    7.7,   0.00,   0.00, 1009.0,   83.4, -999.0
25-05-2022, 00:18:40,    224,    0.3,    7.9,   0.00,   0.00, 1009.0,   83.6, -999.0
25-05-2022, 00:18:50,    245,    2.6,    7.9,   0.00,   0.00, 1009.0,   83.7, -999.0
25-05-2022, 00:19:01,    204,    1.4,    7.9,   0.00,   0.00, 1009.0,   83.7, -999.0
25-05-2022, 00:19:10,    212,    0.6,    7.8,   0.00,   0.00, 1009.0,   83.6, -999.0
25-05-2022, 00:19:20,    212,    0.0,    7.8,   0.00,   0.00, 1008.9,   83.5, -999.0
25-05-2022, 00:19:30,    212,    0.0,    7.7,   0.00,   0.00, 1008.9,   83.3, -999.0
25-05-2022, 00:19:40,    212,    0.0,    7.7,   0.00,   0.00, 1008.8,   83.3, -999.0
25-05-2022, 00:19:50,    212,    0.0,    7.7,   0.00,   0.00, 1008.8,   83.3, -999.0
25-05-2022, 00:20:00,    212,    0.0,    7.7,   0.00,   0.00, 1008.9,   83.3, -999.0
25-05-2022, 00:20:10,    277,    0.5,    7.7,   0.00,   0.00, 1008.9,   83.4, -999.0
25-05-2022, 00:20:20,    261,    0.8,    7.7,   0.00,   0.00, 1009.0,   83.7, -999.0
25-05-2022, 00:20:30,    261,    0.0,    7.7,   0.00,   0.00, 1008.9,   83.4, -999.0
25-05-2022, 00:20:40,    261,    0.0,    7.7,   0.00,   0.00, 1008.8,   83.3, -999.0
25-05-2022, 00:20:50,    253,    0.6,    7.7,   0.00,   0.00, 1009.0,   83.6, -999.0
25-05-2022, 00:21:00,    252,    0.1,    7.7,   0.00,   0.00, 1008.9,   83.5, -999.0
25-05-2022, 00:21:10,    253,    0.0,    7.7,   0.00,   0.00, 1008.9,   83.3, -999.0
25-05-2022, 00:21:20,    245,    1.0,    7.6,   0.00,   0.00, 1008.9,   83.4, -999.0
25-05-2022, 00:21:30,    263,    2.4,    7.7,   0.00,   0.00, 1009.0,   83.7, -999.0
25-05-2022, 00:21:40,    252,    1.7,    7.7,   0.00,   0.00, 1009.0,   83.7, -999.0
25-05-2022, 00:21:50,    246,    1.9,    7.8,   0.00,   0.00, 1009.0,   83.7, -999.0
25-05-2022, 00:21:59,    243,    1.8,    7.7,   0.00,   0.00, 1009.0,   83.7, -999.0
25-05-2022, 00:22:10,    242,    1.3,    7.7,   0.00,   0.00, 1009.0,   83.7, -999.0
25-05-2022, 00:22:19,    243,    0.7,    7.7,   0.00,   0.00, 1009.0,   83.8, -999.0
25-05-2022, 00:22:29,    219,    0.9,    7.7,   0.00,   0.00, 1009.0,   83.8, -999.0
25-05-2022, 00:22:39,    219,    0.0,    7.7,   0.00,   0.00, 1008.9,   83.5, -999.0
25-05-2022, 00:22:49,    223,    0.3,    7.7,   0.00,   0.00, 1009.0,   83.8, -999.0
25-05-2022, 00:22:59,    260,    1.4,    7.7,   0.00,   0.00, 1009.0,   83.9, -999.0
25-05-2022, 00:23:09,    239,    2.0,    7.7,   0.00,   0.00, 1009.0,   83.9, -999.0
25-05-2022, 00:23:19,    253,    1.2,    7.7,   0.00,   0.00, 1009.0,   83.9, -999.0
25-05-2022, 00:23:29,    289,    0.5,    7.7,   0.00,   0.00, 1009.0,   83.9, -999.0
25-05-2022, 00:23:39,    288,    0.0,    7.6,   0.00,   0.00, 1008.9,   83.7, -999.0
25-05-2022, 00:23:49,    240,    0.5,    7.7,   0.00,   0.00, 1009.0,   83.8, -999.0
25-05-2022, 00:23:59,    249,    1.2,    7.6,   0.00,   0.00, 1009.0,   84.0, -999.0
25-05-2022, 00:24:09,    243,    1.3,    7.7,   0.00,   0.00, 1009.0,   84.0, -999.0
25-05-2022, 00:24:19,    219,    1.5,    7.7,   0.00,   0.00, 1009.0,   84.1, -999.0
25-05-2022, 00:24:29,    229,    1.2,    7.7,   0.00,   0.00, 1009.0,   84.0, -999.0
25-05-2022, 00:24:39,    253,    1.0,    7.7,   0.00,   0.00, 1009.0,   84.1, -999.0
25-05-2022, 00:24:49,    252,    0.4,    7.7,   0.00,   0.00, 1009.0,   84.0, -999.0
25-05-2022, 00:24:59,    253,    0.0,    7.6,   0.00,   0.00, 1008.9,   83.7, -999.0
25-05-2022, 00:25:08,    253,    0.0,    7.6,   0.00,   0.00, 1008.9,   83.8, -999.0
25-05-2022, 00:25:19,    250,    0.0,    7.6,   0.00,   0.00, 1008.9,   83.9, -999.0
25-05-2022, 00:25:29,    258,    1.0,    7.7,   0.00,   0.00, 1009.0,   84.1, -999.0
25-05-2022, 00:25:38,    262,    1.5,    7.6,   0.00,   0.00, 1009.0,   84.1, -999.0
25-05-2022, 00:25:48,    259,    0.7,    7.5,   0.00,   0.00, 1009.0,   84.0, -999.0
25-05-2022, 00:25:59,    247,    2.5,    7.7,   0.00,   0.00, 1009.0,   84.1, -999.0
25-05-2022, 00:26:08,    199,    2.2,    7.7,   0.00,   0.00, 1009.0,   84.2, -999.0
25-05-2022, 00:26:18,    214,    1.5,    7.7,   0.00,   0.00, 1009.0,   84.3, -999.0
25-05-2022, 00:26:28,    213,    0.3,    7.7,   0.00,   0.00, 1009.0,   84.2, -999.0
25-05-2022, 00:26:38,    214,    0.0,    7.6,   0.00,   0.00, 1008.9,   84.0, -999.0
25-05-2022, 00:26:48,    220,    0.8,    7.6,   0.00,   0.00, 1009.0,   84.3, -999.0
25-05-2022, 00:26:58,    221,    0.3,    7.7,   0.00,   0.00, 1008.9,   84.2, -999.0
25-05-2022, 00:27:08,    280,    0.1,    7.6,   0.00,   0.00, 1009.0,   84.3, -999.0
25-05-2022, 00:27:18,    253,    0.0,    7.6,   0.00,   0.00, 1008.9,   84.1, -999.0
25-05-2022, 00:27:28,    231,    0.9,    7.6,   0.00,   0.00, 1009.0,   84.5, -999.0
25-05-2022, 00:27:38,    251,    0.3,    7.6,   0.00,   0.00, 1008.9,   84.4, -999.0
25-05-2022, 00:27:48,    251,    0.6,    7.6,   0.00,   0.00, 1009.0,   84.5, -999.0
25-05-2022, 00:27:58,    251,    0.0,    7.6,   0.00,   0.00, 1008.9,   84.3, -999.0
25-05-2022, 00:28:08,    251,    0.0,    7.6,   0.00,   0.00, 1008.9,   84.2, -999.0
25-05-2022, 00:28:17,    251,    0.0,    7.6,   0.00,   0.00, 1009.0,   84.2, -999.0
25-05-2022, 00:28:28,    257,    0.5,    7.6,   0.00,   0.00, 1009.0,   84.5, -999.0
25-05-2022, 00:28:38,    257,    0.4,    7.6,   0.00,   0.00, 1009.0,   84.4, -999.0
25-05-2022, 00:28:47,    257,    0.0,    7.5,   0.00,   0.00, 1008.9,   84.2, -999.0
25-05-2022, 00:28:57,    252,    0.0,    7.5,   0.00,   0.00, 1008.9,   84.2, -999.0
25-05-2022, 00:29:08,    214,    0.0,    7.5,   0.00,   0.00, 1008.9,   84.2, -999.0
25-05-2022, 00:29:17,    200,    1.2,    7.6,   0.00,   0.00, 1009.0,   84.7, -999.0
25-05-2022, 00:29:27,    193,    0.7,    7.6,   0.00,   0.00, 1009.0,   84.6, -999.0
25-05-2022, 00:29:37,    194,    0.0,    7.5,   0.00,   0.00, 1008.9,   84.3, -999.0
25-05-2022, 00:29:47,    195,    0.0,    7.5,   0.00,   0.00, 1008.9,   84.3, -999.0
25-05-2022, 00:29:57,    193,    0.6,    7.6,   0.00,   0.00, 1009.0,   84.7, -999.0
25-05-2022, 00:30:07,    230,    0.0,    7.6,   0.00,   0.00, 1008.9,   84.4, -999.0
25-05-2022, 00:30:17,    259,    1.0,    7.6,   0.00,   0.00, 1009.0,   84.8, -999.0
25-05-2022, 00:30:27,    223,    0.7,    7.6,   0.00,   0.00, 1009.0,   84.9, -999.0
25-05-2022, 00:30:37,    229,    0.3,    7.6,   0.00,   0.00, 1008.9,   84.8, -999.0
25-05-2022, 00:30:47,    235,    0.1,    7.6,   0.00,   0.00, 1008.9,   84.6, -999.0
25-05-2022, 00:30:57,    239,    1.4,    7.7,   0.00,   0.00, 1009.0,   85.0, -999.0
25-05-2022, 00:31:07,    238,    0.8,    7.7,   0.00,   0.00, 1009.0,   84.9, -999.0
25-05-2022, 00:31:17,    228,    0.6,    7.6,   0.00,   0.00, 1008.9,   84.8, -999.0
25-05-2022, 00:31:26,    238,    1.6,    7.6,   0.00,   0.00, 1009.0,   85.0, -999.0
25-05-2022, 00:31:37,    238,    0.5,    7.7,   0.00,   0.00, 1009.0,   84.9, -999.0
25-05-2022, 00:31:47,    238,    0.0,    7.6,   0.00,   0.00, 1008.9,   84.6, -999.0
25-05-2022, 00:31:56,    240,    0.0,    7.5,   0.00,   0.00, 1008.9,   84.7, -999.0
25-05-2022, 00:32:06,    243,    1.0,    7.6,   0.00,   0.00, 1009.0,   84.9, -999.0
25-05-2022, 00:32:17,    243,    0.1,    7.6,   0.00,   0.00, 1008.9,   84.7, -999.0
25-05-2022, 00:32:26,    243,    0.0,    7.5,   0.00,   0.00, 1008.9,   84.6, -999.0
25-05-2022, 00:32:36,    243,    0.0,    7.6,   0.00,   0.00, 1008.9,   84.6, -999.0
25-05-2022, 00:32:47,    244,    0.0,    7.5,   0.00,   0.00, 1008.8,   84.6, -999.0
25-05-2022, 00:32:56,    245,    0.0,    7.5,   0.00,   0.00, 1008.8,   84.6, -999.0
25-05-2022, 00:33:06,    244,    0.0,    7.5,   0.00,   0.00, 1008.9,   84.7, -999.0
25-05-2022, 00:33:16,    245,    0.0,    7.5,   0.00,   0.00, 1008.9,   84.7, -999.0
25-05-2022, 00:33:26,    248,    0.2,    7.5,   0.00,   0.00, 1008.9,   84.8, -999.0
25-05-2022, 00:33:36,    274,    1.0,    7.5,   0.00,   0.00, 1009.0,   85.1, -999.0
25-05-2022, 00:33:46,    289,    1.1,    7.6,   0.00,   0.00, 1009.0,   85.1, -999.0
25-05-2022, 00:33:56,    259,    1.8,    7.5,   0.00,   0.00, 1009.0,   85.1, -999.0
25-05-2022, 00:34:06,    257,    1.7,    7.5,   0.00,   0.00, 1009.0,   85.1, -999.0
25-05-2022, 00:34:16,    263,    0.2,    7.5,   0.00,   0.00, 1008.9,   84.9, -999.0
25-05-2022, 00:34:26,    264,    0.0,    7.5,   0.00,   0.00, 1008.9,   84.8, -999.0
25-05-2022, 00:34:36,    260,    0.0,    7.4,   0.00,   0.00, 1008.9,   84.8, -999.0
25-05-2022, 00:34:46,    255,    0.8,    7.6,   0.00,   0.00, 1009.0,   85.1, -999.0
25-05-2022, 00:34:56,    219,    1.3,    7.6,   0.00,   0.00, 1009.0,   85.3, -999.0
25-05-2022, 00:35:06,    244,    0.7,    7.6,   0.00,   0.00, 1009.0,   85.2, -999.0
25-05-2022, 00:35:15,    268,    2.2,    7.6,   0.00,   0.00, 1009.0,   85.2, -999.0
25-05-2022, 00:35:26,    273,    0.7,    7.6,   0.00,   0.00, 1009.0,   85.1, -999.0
25-05-2022, 00:35:36,    228,    0.3,    7.4,   0.00,   0.00, 1009.0,   85.1, -999.0
25-05-2022, 00:35:45,    233,    0.8,    7.5,   0.00,   0.00, 1009.0,   85.3, -999.0
25-05-2022, 00:35:55,    248,    1.0,    7.6,   0.00,   0.00, 1009.0,   85.4, -999.0
25-05-2022, 00:36:05,    236,    1.1,    7.5,   0.00,   0.00, 1009.0,   85.4, -999.0
25-05-2022, 00:36:15,    247,    0.7,    7.5,   0.00,   0.00, 1009.0,   85.4, -999.0
25-05-2022, 00:36:25,    296,    0.3,    7.5,   0.00,   0.00, 1008.9,   85.2, -999.0
25-05-2022, 00:36:35,    292,    0.1,    7.5,   0.00,   0.00, 1008.9,   85.2, -999.0
25-05-2022, 00:36:45,    252,    0.0,    7.4,   0.00,   0.00, 1008.8,   85.0, -999.0
25-05-2022, 00:36:55,    252,    0.0,    7.5,   0.00,   0.00, 1008.8,   85.1, -999.0
25-05-2022, 00:37:05,    252,    0.0,    7.5,   0.00,   0.00, 1008.8,   85.0, -999.0
25-05-2022, 00:37:15,    247,    0.3,    7.5,   0.00,   0.00, 1008.9,   85.3, -999.0
25-05-2022, 00:37:25,    249,    0.4,    7.5,   0.00,   0.00, 1009.0,   85.4, -999.0
25-05-2022, 00:37:35,    249,    0.0,    7.5,   0.00,   0.00, 1008.9,   85.1, -999.0
25-05-2022, 00:37:45,    248,    0.0,    7.5,   0.00,   0.00, 1008.9,   85.2, -999.0
25-05-2022, 00:37:55,    248,    0.2,    7.5,   0.00,   0.00, 1008.9,   85.4, -999.0
25-05-2022, 00:38:05,    247,    2.0,    7.7,   0.00,   0.00, 1009.0,   85.7, -999.0
25-05-2022, 00:38:15,    260,    1.1,    7.6,   0.00,   0.00, 1009.0,   85.7, -999.0
25-05-2022, 00:38:24,    256,    0.1,    7.5,   0.00,   0.00, 1008.9,   85.4, -999.0
25-05-2022, 00:38:35,    224,    0.5,    7.6,   0.00,   0.00, 1009.0,   85.6, -999.0
25-05-2022, 00:38:45,    218,    0.6,    7.6,   0.00,   0.00, 1008.9,   85.7, -999.0
25-05-2022, 00:38:54,    219,    0.0,    7.5,   0.00,   0.00, 1008.9,   85.3, -999.0
25-05-2022, 00:39:05,    253,    0.2,    7.6,   0.00,   0.00, 1008.9,   85.6, -999.0
25-05-2022, 00:39:14,    240,    0.4,    7.5,   0.00,   0.00, 1009.0,   85.6, -999.0
25-05-2022, 00:39:24,    241,    0.0,    7.5,   0.00,   0.00, 1008.9,   85.4, -999.0
25-05-2022, 00:39:34,    241,    0.0,    7.5,   0.00,   0.00, 1008.8,   85.3, -999.0
25-05-2022, 00:39:44,    241,    0.0,    7.5,   0.00,   0.00, 1008.9,   85.3, -999.0
25-05-2022, 00:39:54,    240,    0.0,    7.5,   0.00,   0.00, 1008.8,   85.2, -999.0
25-05-2022, 00:40:04,    240,    0.0,    7.5,   0.00,   0.00, 1008.9,   85.4, -999.0
25-05-2022, 00:40:14,    240,    0.0,    7.5,   0.00,   0.00, 1008.8,   85.3, -999.0
25-05-2022, 00:40:24,    240,    0.0,    7.4,   0.00,   0.00, 1008.9,   85.4, -999.0
25-05-2022, 00:40:34,    240,    0.0,    7.5,   0.00,   0.00, 1008.9,   85.3, -999.0
25-05-2022, 00:40:44,    245,    0.6,    7.5,   0.00,   0.00, 1008.9,   85.5, -999.0
25-05-2022, 00:40:54,    245,    0.0,    7.5,   0.00,   0.00, 1008.8,   85.2, -999.0
25-05-2022, 00:41:04,    245,    0.0,    7.4,   0.00,   0.00, 1008.8,   85.4, -999.0
25-05-2022, 00:41:14,    245,    0.0,    7.4,   0.00,   0.00, 1008.9,   85.3, -999.0
25-05-2022, 00:41:24,    244,    0.0,    7.5,   0.00,   0.00, 1008.9,   85.3, -999.0
25-05-2022, 00:41:33,    266,    0.8,    7.5,   0.00,   0.00, 1008.9,   85.8, -999.0
25-05-2022, 00:41:44,    251,    1.0,    7.5,   0.00,   0.00, 1009.0,   85.8, -999.0
25-05-2022, 00:41:54,    252,    1.1,    7.6,   0.00,   0.00, 1009.0,   85.8, -999.0
25-05-2022, 00:42:03,    252,    0.3,    7.5,   0.00,   0.00, 1008.9,   85.7, -999.0
25-05-2022, 00:42:14,    250,    0.0,    7.5,   0.00,   0.00, 1008.8,   85.5, -999.0
25-05-2022, 00:42:24,    251,    0.0,    7.5,   0.00,   0.00, 1008.9,   85.4, -999.0
25-05-2022, 00:42:33,    251,    0.0,    7.4,   0.00,   0.00, 1008.9,   85.5, -999.0
25-05-2022, 00:42:43,    252,    0.0,    7.5,   0.00,   0.00, 1008.9,   85.5, -999.0
25-05-2022, 00:42:53,    252,    0.0,    7.4,   0.00,   0.00, 1008.9,   85.5, -999.0
25-05-2022, 00:43:03,    252,    0.0,    7.5,   0.00,   0.00, 1008.9,   85.5, -999.0
25-05-2022, 00:43:13,    252,    0.0,    7.5,   0.00,   0.00, 1008.8,   85.7, -999.0
25-05-2022, 00:43:23,    252,    0.0,    7.4,   0.00,   0.00, 1008.9,   85.6, -999.0
25-05-2022, 00:43:33,    252,    0.0,    7.4,   0.00,   0.00, 1008.9,   85.5, -999.0
25-05-2022, 00:43:43,    252,    0.0,    7.3,   0.00,   0.00, 1008.9,   85.5, -999.0
25-05-2022, 00:43:53,    251,    0.0,    7.4,   0.00,   0.00, 1008.9,   85.5, -999.0
25-05-2022, 00:44:03,    250,    0.0,    7.4,   0.00,   0.00, 1008.9,   85.5, -999.0
25-05-2022, 00:44:13,    250,    0.0,    7.4,   0.00,   0.00, 1008.9,   85.5, -999.0
25-05-2022, 00:44:23,    245,    0.5,    7.5,   0.00,   0.00, 1009.0,   85.9, -999.0
25-05-2022, 00:44:33,    251,    0.5,    7.5,   0.00,   0.00, 1009.0,   85.9, -999.0
25-05-2022, 00:44:43,    244,    0.0,    7.5,   0.00,   0.00, 1008.9,   85.6, -999.0
25-05-2022, 00:44:53,    171,    0.1,    7.5,   0.00,   0.00, 1008.9,   85.7, -999.0
25-05-2022, 00:45:03,    237,    0.1,    7.5,   0.00,   0.00, 1008.9,   86.0, -999.0
25-05-2022, 00:45:12,    236,    0.6,    7.6,   0.00,   0.00, 1009.0,   86.1, -999.0
25-05-2022, 00:45:22,    236,    0.0,    7.5,   0.00,   0.00, 1008.9,   85.8, -999.0
25-05-2022, 00:45:33,    235,    0.1,    7.5,   0.00,   0.00, 1009.0,   86.0, -999.0
25-05-2022, 00:45:42,    236,    0.5,    7.5,   0.00,   0.00, 1009.0,   86.2, -999.0
25-05-2022, 00:45:52,    237,    0.1,    7.5,   0.00,   0.00, 1008.9,   86.0, -999.0
25-05-2022, 00:46:03,    238,    0.0,    7.5,   0.00,   0.00, 1008.9,   85.9, -999.0
25-05-2022, 00:46:12,    256,    0.8,    7.5,   0.00,   0.00, 1009.0,   86.3, -999.0
25-05-2022, 00:46:22,    259,    1.8,    7.6,   0.00,   0.00, 1009.0,   86.4, -999.0
25-05-2022, 00:46:32,    210,    0.9,    7.5,   0.00,   0.00, 1009.0,   86.2, -999.0
25-05-2022, 00:46:42,    243,    0.6,    7.5,   0.00,   0.00, 1009.0,   86.1, -999.0